Погода в Ягельном

Россия / Ямало-Ненецкий автономный округ     64°40′47″N   72°21′58″E
темп.,
°C
ветер,
м/с
пор.,
м/с
влажн.,
%
обл.,
%
осадки,
мм/ч
давл.,
гПа
погр.,
м
17 мая, пн
пн1723:00+5ююв2283100 0.0 1015404
02:00+4ююв2388100 0.0 1015669
05:00+5юв3391100 0.0 1014531
08:00+5вюв4590100 0.0 1013391
11:00+5юв5688100 0.0 1013385
14:00+4в4595100 0.0 1014312
17:00+4в3492100 0.0 1014311
20:00+5св358264 0.0 1014237
18 мая, вт
вт1823:00+4ссв467688 0.0 1015114
02:00+3ссв576985 0.0 1016136
05:00+3св456786 0.0 1018154
08:00+4ссв666088 0.0 1019446
11:00+7с66515 0.0 10201022
14:00+9ссз66405 0.0 10211590
17:00+9с873719 0.0 10221907
20:00+6ссв664682 0.0 10231384
19 мая, ср
ср1923:00+3ссв710495 0.0 1025424
02:00+2св575599 0.0 1026512
05:00+1всв4455100 0.0 1027584
08:00+2св335271 0.0 1027909
11:00+4св2241100 0.0 10271254
14:00+5св2236100 0.0 10261398
17:00+6в2234100 0.0 10251334
20:00+6юв4435100 0.0 10241152
20 мая, чт
чт2023:00+5ююв6840100 0.0 1022927
02:00+3ю91271100 1.0 1019781
05:00+1ююв101597100 4.0 1017487
08:00+1ююв111796100 3.1 1014551
11:00+2ю101495100 4.8 1013478
14:00+3ю81194100 0.1 1013359
17:00+4ю679278 0.1 1013265
20:00+5ююв579489 0.0 1012158
21 мая, пт
пт2123:00+4ю699663 0.0 1011124
02:00+8ююз5696100 0.4 100970
05:00+12зюз81289100 1.6 1006139
08:00+15з51085100 0.1 1007232
11:00+19зсз911697 0.1 1007810
14:00+21ссз9116034 0.7 10081419
17:00+17с8107121 0.9 1010783
20:00+12с810725 0.0 1013542